Terminal Aerodrome Forecast
Issued by NWS Charleston, WV

Home | Current Version | Previous Version | Text Only | Print | Product List | Glossary On
Versions: 1 2 3 4 5 6 7 8 9 10 11 12 13 14 15 16 17 18 19 20 21 22 23 24 25
404
FTUS41 KRLX 270544 CCA
TAFHTS
TAF COR
KHTS 270544Z 2706/2806 17003KT P6SM BKN090
     FM272200 15003KT P6SM BKN140=

USA.gov is the U.S. government's official web portal to all federal, state and local government web resources and services.